Location: Moy Burn
(57.3833°N, 4.0667°W)
Time: 10:24:22
(UTC+00:00)

Cosmos 1869 Rocket - Pass Details

Date: 08 August 2020
Orbit: 604 x 634 km, 82.5° (Epoch: 21 September)

Event Time Altitude Azimuth Distance (km) Brightness Sun altitude
Exits shadow 22:13:01 18° 154° (SSE) 1,546 4.9 -12.1°
Maximum altitude 22:15:54 40° 93° (E) 928 4.2 -12.3°
Drops below altitude 10° 22:20:06 10° 24° (NNE) 2,025 6.7 -12.6°
Sets 22:22:27 0° 17° (NNE) 2,941 7.7 -12.7°
